Weather History for KSGR - July, 2013

Change the Weather History Date:

Wednesday, July 24, 2013

  Actual Average Record
Temperature  
Mean Temperature 86 °F -  
Max Temperature 97 °F 93 °F 99 °F (1977)
Min Temperature 75 °F 73 °F 68 °F (1947)
Cooling Degree Days 20    
Growing Degree Days 36 (Base 50)    
Moisture  
Dew Point 73 °F    
Average Humidity 72    
Maximum Humidity 96    
Minimum Humidity 44    
Precipitation  
Precipitation 0.00 in - - ()
Sea Level Pressure  
Sea Level Pressure 29.95 in    
Wind  
Wind Speed 7 mph (SSW)    
Max Wind Speed 13 mph    
Max Gust Speed 17 mph    
Visibility 10 miles    
Events      
Averages and records for this station are not official NWS values.
T = Trace of Precipitation, MM = Missing Value Source: NWS Daily Summary

Daily Weather History Graph

Daily Weather History Graph

Search for Another Location

Airport or City:

Trip Planner

Search our weather history database for the weather conditions in past years. The results will help you decide how hot, cold, wet, or windy it might be!

Date:

Astronomy

Jul. 24, 2013 Rise Set
Actual Time 6:37 AM CDT 8:20 PM CDT
Civil Twilight 6:11 AM CDT 8:46 PM CDT
Nautical Twilight 5:39 AM CDT 9:17 PM CDT
Astronomical Twilight 5:06 AM CDT 9:51 PM CDT
Moon 9:44 PM CDT (7/24) 8:44 AM CDT (7/24)
Length of Visible Light 14h 34m
Length of Day
13h 42m
Waning Gibbous, 94% of the Moon is Illuminated
Jul 24
Waning Gibbous
Jul 29
Last Quarter
Aug 6
New
Aug 14
First Quarter
Aug 20
Full

Hourly Weather History & Observations

Time (CDT) Temp. Heat Index Dew Point Humidity Pressure Visibility Wind Dir Wind Speed Gust Speed Precip Events Conditions
12:53 AM 78.1 °F - 75.0 °F 90% 29.96 in 10.0 mi South 8.1 mph - N/A   Clear
1:53 AM 78.1 °F - 73.9 °F 87% 29.93 in 10.0 mi South 10.4 mph - N/A   Clear
2:53 AM 78.1 °F - 73.9 °F 87% 29.94 in 10.0 mi SSW 8.1 mph - N/A   Clear
3:53 AM 75.9 °F - 73.9 °F 94% 29.95 in 9.0 mi SSW 5.8 mph - N/A   Clear
4:53 AM 75.0 °F - 73.0 °F 94% 29.95 in 8.0 mi Calm Calm - N/A   Clear
5:53 AM 75.0 °F - 73.0 °F 94% 29.96 in 8.0 mi Calm Calm - N/A   Clear
6:53 AM 75.0 °F - 73.0 °F 94% 29.98 in 7.0 mi Calm Calm - N/A   Clear
7:53 AM 77.0 °F - 75.9 °F 96% 30.00 in 8.0 mi Calm Calm - N/A   Clear
8:53 AM 82.0 °F 88.6 °F 75.0 °F 79% 29.99 in 10.0 mi SW 6.9 mph - N/A   Clear
9:53 AM 84.9 °F 93.3 °F 75.0 °F 72% 29.99 in 10.0 mi SSW 12.7 mph 17.3 mph N/A   Partly Cloudy
10:53 AM 88.0 °F 96.5 °F 73.9 °F 63% 30.01 in 10.0 mi SW 10.4 mph 16.1 mph N/A   Mostly Cloudy
11:53 AM 91.0 °F 100.4 °F 73.9 °F 57% 30.01 in 10.0 mi West 6.9 mph - N/A   Partly Cloudy
12:53 PM 91.0 °F 98.2 °F 72.0 °F 53% 29.99 in 10.0 mi West 9.2 mph - N/A   Partly Cloudy
1:53 PM 93.0 °F 100.1 °F 71.1 °F 49% 29.96 in 10.0 mi West 6.9 mph - N/A   Partly Cloudy
2:53 PM 93.9 °F 99.1 °F 69.1 °F 44% 29.93 in 10.0 mi West 5.8 mph - N/A   Clear
3:53 PM 95.0 °F 103.2 °F 72.0 °F 47% 29.90 in 10.0 mi Variable 4.6 mph - N/A   Clear
4:53 PM 96.1 °F 103.5 °F 71.1 °F 44% 29.88 in 10.0 mi SSW 10.4 mph 16.1 mph N/A   Clear
5:53 PM 91.9 °F 99.5 °F 72.0 °F 52% 29.88 in 10.0 mi South 10.4 mph - N/A   Clear
6:53 PM 91.0 °F 99.3 °F 73.0 °F 55% 29.89 in 10.0 mi South 10.4 mph - N/A   Clear
7:53 PM 88.0 °F 96.5 °F 73.9 °F 63% 29.91 in 10.0 mi South 8.1 mph - N/A   Clear
8:53 PM 84.9 °F 92.1 °F 73.9 °F 69% 29.92 in 10.0 mi SSW 9.2 mph - N/A   Clear
9:53 PM 82.9 °F 89.4 °F 73.9 °F 74% 29.94 in 10.0 mi SSW 10.4 mph - N/A   Clear
10:53 PM 81.0 °F 86.7 °F 75.0 °F 82% 29.95 in 10.0 mi SSW 5.8 mph - N/A   Clear
11:53 PM 79.0 °F - 75.0 °F 88% 29.96 in 10.0 mi SSW 6.9 mph - N/A   Clear